Location: Matrei
(47.1333°N, 11.4500°E)
Time: 21:01:39
(UTC+00:00)

STARLINK-1364 - Pass Details

Date: 07 June 2020
Orbit: 379 x 380 km, 53.0° (Epoch: 09 July)

Event Time Altitude Azimuth Distance (km) Brightness Sun altitude
Rises 01:30:08 0° 298° (WNW) 2,263 6.7 -13.6°
Reaches altitude 10° 01:32:15 10° 305° (NW) 1,407 5.7 -13.4°
Maximum altitude 01:35:17 45° 20° (NNE) 532 4.1 -13.1°
Drops below altitude 10° 01:38:19 10° 95° (E) 1,402 6.1 -12.8°
Sets 01:40:25 0° 102° (ESE) 2,253 7.1 -12.6°
